Inquirer Daily News

Weather

Get conditions and forecasts for any City, State, ZIP code or Country:  
Northeast Philadelphia, PA
on Tuesday, January 1, 2013

Tuesday
Previous Day Next Day
Daily Summary
 ActualAverage (KTTN)Record (KTTN)
Temperature
Mean Temperature °F 32°F  
Max Temperature 42°F 40°F 64°F (2005)
Min Temperature 30°F 24°F -10°F (1881)
Degree Days
Heating Degree Days 29 33  
Month to date heating degree days 33  
Since 1 July heating degree days 1928  
Cooling Degree Days 0 0  
Month to date cooling degree days 0  
Year to date cooling degree days 0  
Moisture
Dew Point 25°F   
Average Humidity 61    
Maximum Humidity 68    
Minimum Humidity 53    
Precipitation
Precipitation 0.00 in 0.11 in 1.36 in (2007)
Month to date precipitation 0.11  
Year to date precipitation 0.11  
Wind
Wind Speed 10 mph   
Max Wind Speed 13 mph   
Max Gust Speed 20 mph   
Visibility 10 miles   
Events     

Key: T is trace of precipitation, MM is missing value
Source: NWS Daily Summary
Time(EST)TemperatureDew PointHumidity Pressure Visibility Wind DirectionWind SpeedGust SpeedPrecipitationEvents Conditions
12:54 AM 42.8°F 26.6°F 53% 29.94 in 10.0 miles West 10.4 mph - N/A   Overcast
1:54 AM 42.8°F 26.6°F 53% 29.94 in 10.0 miles WSW 10.4 mph - N/A   Overcast
2:54 AM 42.1°F 27.0°F 55% 29.95 in 10.0 miles WSW 9.2 mph - N/A   Overcast
3:54 AM 41.0°F 28.0°F 60% 29.96 in 10.0 miles West 11.5 mph - N/A   Overcast
4:54 AM 39.9°F 28.0°F 63% 29.93 in 10.0 miles West 8.1 mph - N/A   Scattered Clouds
5:54 AM 39.2°F 28.4°F 65% 29.95 in 10.0 miles West 10.4 mph - N/A   Mostly Cloudy
6:54 AM 37.9°F 28.0°F 68% 29.96 in 10.0 miles WNW 4.6 mph - N/A   Clear
7:54 AM 39.0°F 28.0°F 65% 29.96 in 10.0 miles West 8.1 mph - N/A   Overcast
8:54 AM 39.0°F 28.0°F 65% 29.96 in 10.0 miles West 6.9 mph - N/A   Overcast
9:54 AM 39.0°F 27.0°F 62% 29.96 in 10.0 miles West 8.1 mph - N/A   Overcast
10:54 AM 39.9°F 28.0°F 63% 29.97 in 10.0 miles West 10.4 mph - N/A   Overcast
11:54 AM 39.9°F 28.0°F 63% 29.95 in 10.0 miles West 10.4 mph - N/A   Overcast
12:54 PM 39.2°F 28.4°F 65% 29.92 in 10.0 miles West 12.7 mph - N/A   Overcast
1:54 PM 39.9°F 27.0°F 60% 29.88 in 10.0 miles West 9.2 mph 19.6 mph N/A   Mostly Cloudy
2:54 PM 39.9°F 27.0°F 60% 29.90 in 10.0 miles WNW 10.4 mph - N/A   Clear
3:54 PM 39.2°F 26.6°F 61% 29.93 in 10.0 miles WNW 9.2 mph - N/A   Mostly Cloudy
4:54 PM 39.0°F 26.1°F 60% 29.93 in 10.0 miles WNW 12.7 mph - N/A   Mostly Cloudy
5:54 PM 37.0°F 27.0°F 67% 29.96 in 10.0 miles NW 10.4 mph - N/A   Overcast
6:54 PM 37.0°F 24.1°F 59% 29.97 in 10.0 miles WNW 9.2 mph - N/A   Partly Cloudy
7:54 PM 35.1°F 23.0°F 61% 30.01 in 10.0 miles North 6.9 mph - N/A   Clear
8:54 PM 33.1°F 19.9°F 59% 30.01 in 10.0 miles NNW 9.2 mph - N/A   Clear
9:54 PM 32.0°F 19.0°F 59% 30.01 in 10.0 miles North 8.1 mph - N/A   Overcast
10:54 PM 30.9°F 17.1°F 57% 30.04 in 10.0 miles North 8.1 mph - N/A   Partly Cloudy
11:54 PM 30.0°F 15.1°F 54% 30.04 in 10.0 miles North 12.7 mph - N/A   Clear
Astronomy
Sunrise:07:22 AM (EST) Moon Rise:09:14 PM (EST)
Sunset:04:45 PM (EST) Moon Set:09:33 AM (EST)
Moon Phase
Jan. 01 Jan. 04 Jan. 11 Jan. 18 Jan. 26

Copyright © 2014 The Weather Underground, Inc.